Showing default

TIROS 5, 309

Orbit data source: Space-Track

TIROS 5, 309 is a payload satellite owned by GSFC (US) in LEO that was launched on Tue, 19 Jun 1962 UTC via a THOR DELTA launch vehicle from the Air Force Eastern Test Range (AFETR). Payloads include a variety of satellites, spacecraft, and rockets equipped with specific instruments for various scientific and technological missions. These include communications satellites like Starlink; space stations such as the ISS; scientific satellites like the Hubble; Earth observation satellites from companies like Planet Labs, Umbra, and HawkEye 360; GPS; miniature CubeSats for education and research; and military/defense satellites.

Loading next visibility...
TIROS 5 details
Identifier
309, 1962-025A
Orbit
LEO
Last TLE update16 hours ago
Origin
Flag of USGSFC (US)
ManufacturerRCA/East Windsor
MissionNon-operational Civil Weather
Bus & MotorTIROS, Unknown motor
Mass129 kg wet, 129 kg dry
Launch date (UTC)
1962-06-19 (63 years ago)
Launch vehicle
THOR DELTA
Launch site
Air Force Eastern Test Range (AFETR)
Object type
Payload
Rocket body
Debris
Shape & HBRCyl, 1.07 m
Radar Cross Section0.920 m², Medium (>0.1 m² and < 1m²)

Expand to show TLE details & history

TLE from 16 hours ago
0 TIROS 5
1 00309U 62025A   24356.54661989  .00001633  00000-0  30680-3 0  9998
2 00309  58.0921  53.0284 0181403 237.1931 121.1514 14.59468290302574
Epoch: 2024-12-21T13:07Z
Definitive object data (Epoch: 2024-12-21T13:07:07.958Z)
Latitude-0.00004°
Longitude125.649°
Altitude764.317 km
Speed7.437 km/s
True Right ascension03h 32m 06s
True Declination0° 00' 00"
Sunlit
Object was in full shadow at TLE epoch
Visualization TLE readout
Latitude-39.89468°
Longitude-25.59865°
Altitude581.851 km
Speed7.637 km/s
Apparent Right ascension16h 46m 44s
Apparent Declination-40° 12' 17"
Sunlit
Object is in daylight
Visualization observer readout
Local Sidereal Time04:02:38
Azimuth264.492° W
Elevation-81.56°
Doppler factor1
Orbital elements
Apogee altitude822.689 km
Perigee altitude566.094 km
Semi-major axis7,072.528 km
Eccentricity0.0181403
Inclination58.0921°
RAAN53.0284°
Arg. of periapsis237.1931°
True anomaly122.90947°
Mean anomaly121.1514°
Eccentric anomaly122.03252°
Mean motion3.64906 °/min
BSTAR0.0003068
Orbital period98.66 mins
Loading maneuver chart data...
Loading historical data...
Loading historical data...
Loading historical data...
Loading historical data...
Loading historical data...
Loading historical data...
Loading historical data...

TIROS 5 Visibility forecast

Observer location: undefined°, undefined

Span
Click to sort rows by Start time (UTC) header in descending order
Start Az.
Max El. time (UTC)
Max El. Az.
Max El.
End time (UTC)
End Az.
10 mins2024-12-22 05:41:07.417Z197.851° SSW2024-12-22 05:46:07.417Z124.99° SE37.39°2024-12-22 05:51:07.417Z52.896° ENE
8 mins2024-12-22 07:25:07.417Z267.235° W2024-12-22 07:29:07.417Z333.166° NNW29.623°2024-12-22 07:33:07.417Z25.184° NE
4 mins2024-12-22 09:11:07.417Z327.846° NNW2024-12-22 09:12:07.417Z339.107° N13.242°2024-12-22 09:15:07.417Z12.484° NNE
7 mins2024-12-22 12:38:07.417Z343.681° N2024-12-22 12:41:07.417Z25.463° NE24.046°2024-12-22 12:45:07.417Z84.695° E
8 mins2024-12-22 14:20:07.417Z310.772° NW2024-12-22 14:24:07.417Z241.308° WSW42.133°2024-12-22 14:28:07.417Z153.439° SSE
7 mins2024-12-23 04:43:07.417Z156.788° SSE2024-12-23 04:46:07.417Z114.152° SE21.881°2024-12-23 04:50:07.417Z67.982° E
|